RH
3 3 4 4 4 5 6 6 6 6 6 7 6 6 7 6 6 6 6 7 7 7 7 7 7 7 7 7 7 7 7 7 6 7 7 8 10 10 11 12 11 11 11 13 17 21 28 36 44 54 70 85 94 99 101 100 101 101 99 98 97 94 93 96 98 96 93 92 92 94 99 98 97 95
4 4 5 6 7 8 8 9 10 9 8 8 8 8 8 8 8 8 8 8 9 9 9 9 9 9 10 10 10 10 10 11 10 9 9 9 10 11 13 16 19 21 23 25 28 33 37 43 50 57 63 70 77 85 92 97 99 100 101 101 100 98 96 97 99 100 98 94 91 93 99 101 99 97
8 9 10 11 13 14 14 14 14 14 14 13 13 12 12 12 12 11 12 11 11 11 11 11 11 11 11 11 11 12 12 12 13 12 12 12 11 11 11 12 14 15 18 21 25 29 32 36 40 43 46 48 52 57 64 71 77 81 86 90 94 97 99 100 101 100 100 99 97 96 98 100 101 100
18 19 19 20 20 20 20 20 20 19 19 19 18 18 17 16 16 15 16 15 15 15 15 14 13 13 13 12 12 13 12 12 13 13 13 13 13 13 13 13 13 13 13 13 15 16 18 20 22 25 28 30 31 32 35 39 43 48 54 60 67 74 81 87 92 96 98 99 100 100 101 101 100 100
24 23 23 22 23 24 24 25 25 25 25 25 24 23 23 22 22 21 20 20 20 19 19 18 17 16 16 15 15 15 14 14 14 14 14 14 13 13 13 13 13 14 14 13 13 13 13 14 14 15 17 19 20 21 22 23 25 27 30 34 38 43 49 55 62 71 78 82 86 89 93 97 99 101
26 24 23 23 23 24 24 24 25 26 26 27 27 26 25 24 24 25 24 23 22 22 22 22 21 21 20 20 20 19 19 18 17 16 16 16 16 15 15 14 14 14 14 14 14 13 14 14 14 14 14 14 15 16 17 18 18 19 20 22 24 26 29 31 34 38 43 49 53 57 63 71 79 87
29 27 25 25 25 25 26 27 29 31 32 33 34 35 34 33 30 28 26 25 25 24 24 24 24 23 23 22 22 22 22 22 22 22 21 20 20 20 19 19 18 18 17 16 16 15 15 14 14 14 14 14 14 15 15 16 16 16 16 16 17 18 20 22 22 24 25 27 29 30 34 38 45 53
34 35 32 31 32 33 34 35 37 40 40 40 41 43 45 46 44 39 36 36 35 34 33 32 31 30 29 27 26 25 24 24 24 24 24 24 23 23 23 22 22 22 21 21 20 19 19 18 17 16 15 15 15 16 16 17 17 17 17 17 17 17 17 17 18 18 18 19 20 20 21 23 25 28
38 40 41 42 44 45 45 46 47 46 45 42 40 40 43 48 51 52 50 49 46 44 43 42 41 41 40 38 36 33 31 28 27 26 25 24 24 24 24 23 22 21 20 20 21 21 20 19 18 17 17 16 16 15 15 16 16 16 16 17 17 17 18 18 18 18 17 17 17 17 17 17 18 18
39 41 44 47 48 49 50 51 51 50 49 46 44 42 42 44 47 50 51 50 48 47 48 49 49 49 48 46 45 43 40 38 35 32 29 26 25 25 25 23 20 18 18 19 22 24 24 21 18 17 17 17 18 19 19 20 20 20 19 18 17 17 16 16 16 17 18 18 18 17 17 16 16 15
43 40 41 43 44 46 47 49 50 50 49 49 49 48 46 45 45 47 48 47 46 45 45 45 46 46 46 47 49 50 49 47 44 42 39 36 32 29 26 23 20 17 18 21 25 28 29 27 25 22 20 19 20 22 25 27 27 27 27 25 23 21 19 18 17 16 16 16 17 18 18 18 18 17
56 51 47 45 44 45 46 48 48 48 48 49 49 47 45 43 42 42 40 38 35 34 32 31 32 32 33 37 44 49 49 46 43 42 43 41 40 39 35 31 28 27 28 29 29 30 30 30 29 26 24 23 21 21 22 23 24 25 27 28 27 26 23 20 19 18 17 16 15 15 15 15 16 17
68 65 62 58 55 57 60 60 58 55 53 51 49 46 42 39 35 30 27 25 24 22 21 20 22 23 23 25 31 37 38 36 32 30 30 31 32 32 32 31 29 28 29 29 27 26 27 28 29 27 26 25 24 22 20 19 20 20 21 23 24 25 24 22 20 19 18 18 17 16 15 13 12 12
83 83 79 76 74 74 75 73 68 62 58 53 49 45 41 36 31 25 22 20 18 17 16 15 15 17 18 18 20 23 26 26 23 18 17 17 17 18 18 18 17 17 18 18 17 17 17 19 21 23 23 23 24 24 22 19 18 17 16 17 17 19 20 21 21 20 18 17 16 16 16 16 15 13
94 94 91 89 87 82 78 77 74 67 58 51 46 41 37 33 30 27 24 22 19 17 15 14 13 13 13 13 14 14 15 16 15 13 12 11 11 11 10 10 10 10 10 11 11 11 11 11 13 15 18 19 20 22 23 22 20 19 17 16 15 15 15 16 18 20 19 18 16 15 15 15 15 15
101 99 98 99 96 89 82 80 77 68 57 51 46 43 39 37 35 32 29 25 22 19 16 15 14 12 12 12 12 12 12 11 11 11 10 10 10 10 9 9 9 9 9 9 9 9 10 10 10 12 14 14 15 18 20 21 22 22 21 19 17 15 14 14 14 15 17 18 18 17 16 14 13 13
92 89 85 82 80 78 75 73 71 66 61 57 54 52 49 45 40 35 30 25 21 18 15 14 14 13 13 13 12 12 12 12 12 11 11 11 10 10 10 10 10 9 9 9 8 8 8 8 8 9 10 10 11 14 17 20 22 23 23 24 22 20 19 17 16 16 16 18 18 18 17 16 14 13
51 50 47 46 46 46 48 53 58 62 65 65 61 57 53 47 39 30 24 21 19 17 17 17 17 16 16 15 15 15 14 14 13 13 13 12 12 12 12 11 11 10 10 9 9 8 8 7 7 7 7 8 9 10 13 17 22 25 26 27 26 25 24 22 21 20 20 20 20 19 17 16 14 13
33 32 32 32 34 35 36 40 45 49 52 53 50 48 45 42 39 34 28 25 23 23 22 22 21 20 19 18 17 17 16 16 15 14 14 14 13 13 13 12 11 10 10 9 9 8 7 7 7 7 7 7 7 7 8 10 13 18 22 24 27 27 27 25 24 23 22 22 21 20 17 15 14 13
44 43 43 40 37 37 38 40 42 42 40 38 36 36 38 40 42 40 37 34 31 29 27 25 23 22 20 20 19 18 18 17 16 16 15 14 14 13 12 11 10 9 8 8 7 7 7 6 7 7 7 7 7 7 7 7 7 8 9 12 14 17 19 20 21 21 21 21 21 20 17 15 13 13
54 57 59 58 54 49 47 46 47 47 47 44 39 37 36 36 37 35 33 31 30 28 27 25 24 22 21 20 19 18 18 17 16 15 14 13 12 11 9 8 8 7 6 6 6 6 6 6 7 7 7 7 8 7 7 8 8 7 7 7 7 7 8 9 10 12 13 14 15 16 15 14 13 13
63 63 64 68 71 69 67 66 65 65 64 59 51 44 39 36 35 36 36 34 33 32 30 28 26 25 22 20 18 17 16 15 14 12 10 9 8 7 7 6 6 6 6 6 6 6 6 6 6 7 7 7 7 7 7 7 7 7 7 7 7 7 7 6 6 6 6 7 8 10 11 12 13 14
72 68 65 69 74 76 77 78 78 77 75 69 63 56 51 48 46 45 44 41 38 36 34 30 28 25 22 19 16 13 11 10 9 8 7 6 6 5 5 5 5 6 6 6 6 6 6 6 6 6 6 6 6 7 7 7 7 8 7 7 6 6 6 6 6 6 6 6 5 6 7 8 10 12
75 72 70 71 74 74 73 73 74 74 72 69 65 60 55 51 47 43 39 36 35 34 30 28 25 23 20 16 11 8 7 6 6 6 6 6 6 5 5 5 5 6 5 6 6 6 6 6 7 8 8 8 9 10 10 10 9 9 8 8 8 7 7 6 6 6 6 6 6 6 6 5 6 8
76 75 76 77 76 73 71 70 70 69 67 64 59 53 48 44 39 34 31 29 28 26 24 22 20 17 14 10 7 5 5 4 4 5 5 6 5 5 5 6 6 6 6 6 6 7 7 8 9 11 12 12 12 12 12 11 9 8 8 7 7 8 8 8 8 8 7 6 6 6 6 6 6 6
78 81 82 80 77 75 74 74 73 71 67 61 55 49 45 41 37 33 29 25 23 20 18 15 13 10 8 6 5 4 4 4 4 5 5 6 6 6 6 6 6 6 7 7 8 9 10 11 12 13 13 13 12 11 9 8 7 6 6 6 6 6 6 6 8 9 9 9 8 7 7 6 6 6
82 82 78 76 75 74 73 73 72 68 62 55 51 47 43 41 40 35 27 20 16 13 11 9 7 6 5 4 5 5 4 5 5 5 6 6 6 6 6 7 7 7 8 9 11 12 12 13 13 12 11 11 10 9 8 8 8 7 7 7 7 6 6 6 5 6 7 9 10 10 10 9 8 8
85 81 77 75 72 71 72 72 68 62 55 50 48 47 47 47 45 34 20 13 10 8 7 6 5 5 5 5 5 5 5 5 6 7 7 6 7 7 7 7 7 9 11 12 14 14 14 13 12 11 10 10 9 8 8 8 7 7 7 7 7 6 6 6 6 5 6 6 7 8 10 11 11 11
88 84 79 74 71 72 73 71 64 57 54 53 55 57 57 52 41 24 12 8 8 6 6 6 5 6 6 6 6 6 7 8 8 8 8 8 8 8 8 9 11 13 15 16 15 14 13 11 10 9 8 7 6 6 7 6 6 6 6 6 6 6 6 6 6 6 6 5 5 6 6 8 10 11
88 82 75 75 82 84 78 71 68 64 61 61 60 57 49 37 23 13 8 7 7 6 6 6 6 6 6 7 9 11 11 12 11 11 10 10 11 12 13 14 15 15 15 14 12 11 9 8 7 7 9 10 12 12 11 10 9 9 7 5 4 3 4 4 4 5 5 6 5 5 5 6 6 7
84 79 76 83 95 96 86 79 75 68 59 52 44 34 25 17 11 8 7 7 7 7 7 7 8 10 12 14 15 15 15 15 15 14 13 14 14 15 16 15 14 13 12 10 8 7 8 11 16 23 29 33 37 39 37 34 34 34 31 28 23 20 19 15 10 6 4 4 4 5 5 6 5 5
77 80 86 94 102 100 90 80 72 62 50 38 27 18 13 10 8 8 8 9 9 10 11 12 15 17 19 18 18 17 17 17 17 16 16 16 15 15 14 13 11 10 8 8 10 16 25 37 49 59 66 69 70 71 69 68 68 66 64 64 63 61 58 53 44 33 21 12 8 5 3 4 5 5
84 92 97 100 101 96 84 73 64 52 39 26 16 11 10 9 9 10 11 12 14 16 17 19 20 20 20 19 18 18 17 17 18 17 16 15 14 13 12 9 8 9 14 23 35 48 62 73 82 87 90 90 89 86 82 80 79 75 73 75 78 80 81 79 77 74 63 50 38 27 17 10 5 3
93 97 95 90 87 81 72 64 54 39 24 15 11 10 11 11 12 14 15 17 20 22 22 22 21 20 19 19 18 18 18 18 17 16 15 14 13 10 8 10 17 28 43 58 71 81 89 93 94 94 93 89 85 80 72 67 65 63 63 65 70 74 78 81 85 90 89 83 76 71 63 51 34 20
100 99 92 83 76 72 68 58 42 25 14 12 12 12 14 15 17 19 21 23 24 24 22 21 20 19 19 19 19 19 18 17 16 15 13 11 9 11 20 33 49 64 77 86 92 95 96 95 91 87 81 74 68 62 54 47 45 45 47 53 60 64 65 69 77 86 90 89 89 91 93 89 78 64
101 99 91 80 72 71 63 46 27 16 14 15 16 16 18 21 23 24 24 25 24 23 21 21 21 22 21 20 19 18 16 15 15 12 10 11 20 35 53 67 80 89 93 95 97 97 93 88 80 73 67 62 58 56 50 44 42 45 50 58 64 63 60 60 64 73 83 88 89 89 89 89 88 85
101 98 88 78 74 67 49 28 18 18 19 19 20 22 24 25 25 25 25 24 22 21 23 24 24 22 19 18 17 17 17 15 12 11 18 34 53 71 83 89 93 96 97 96 96 92 84 77 70 66 66 65 63 62 58 53 51 55 62 67 68 66 63 63 62 66 73 80 82 81 80 79 78 78
102 98 89 82 72 53 30 19 20 21 20 22 27 29 28 26 25 25 23 21 23 26 27 25 20 17 17 18 20 20 16 13 15 27 48 70 84 92 95 96 96 98 97 94 87 79 74 73 72 71 71 69 67 67 68 65 65 69 74 75 72 68 67 68 69 70 72 74 74 71 68 67 66 66
100 96 89 77 57 33 19 21 23 20 22 29 33 30 26 25 24 22 21 24 29 29 23 17 16 17 20 22 22 19 16 21 39 62 82 94 98 97 96 98 100 98 90 79 71 68 72 76 76 71 66 64 67 72 77 79 80 82 84 84 82 80 81 82 84 84 82 80 76 70 66 65 66 67
96 89 76 57 34 19 19 23 19 18 27 33 30 26 25 23 20 21 27 33 31 22 15 15 19 21 23 24 22 22 29 49 73 90 96 97 96 95 96 98 93 82 70 63 63 67 70 70 65 60 56 56 62 72 82 88 90 91 92 93 93 94 97 98 97 96 95 91 85 80 78 79 79 76
82 65 47 32 20 18 23 21 15 21 31 30 25 23 22 18 19 30 38 33 21 13 14 19 22 23 24 27 32 40 57 80 94 95 93 93 92 93 95 88 73 60 57 59 61 61 61 60 59 60 59 57 60 72 86 94 95 95 95 97 98 99 100 101 101 102 101 99 96 93 91 86 78 68
50 34 25 20 18 21 21 16 15 25 30 27 24 21 16 19 33 43 37 22 12 14 19 22 24 26 25 33 52 70 84 95 96 89 88 94 96 93 85 69 55 50 53 55 55 58 63 69 74 76 72 65 65 77 93 100 100 98 98 98 99 101 101 101 101 103 103 103 101 95 85 74 64 54
26 23 22 21 20 20 17 13 18 27 29 26 21 16 20 38 51 42 23 12 12 18 22 23 27 28 24 35 65 91 98 97 95 93 94 97 97 90 74 56 47 49 52 55 61 70 78 84 88 88 84 75 70 78 94 103 103 100 99 99 100 103 104 100 98 100 101 100 97 90 80 70 62 55
27 27 25 22 21 18 14 14 21 29 29 22 17 23 43 60 51 26 11 12 16 20 25 27 28 28 24 30 56 88 103 102 98 98 101 99 94 87 73 54 45 50 58 66 74 81 87 93 97 95 91 84 75 74 87 101 105 100 97 98 101 104 104 100 97 99 100 99 98 95 87 78 72 66
32 30 25 24 23 16 12 17 26 29 24 18 24 49 71 63 33 11 10 16 17 22 29 30 28 29 28 26 35 59 86 100 101 101 100 98 97 95 81 58 47 55 67 75 81 87 93 98 100 98 96 94 85 74 76 91 102 98 91 90 94 100 102 100 99 101 101 101 102 101 93 87 86 86
Wind_Speed
19 18 18 17 17 17 17 16 15 15 15 14 13 13 12 12 11 11 11 10 10 10 10 10 10 10 11 11 11 11 11 11 11 11 11 11 12 13 14 15 16 18 18 19 20 21 21 22 23 23 23 24 23 22 23 26 28 29 29 29 30 30 30 30 31 32 34 34 33 33 33 34 33 34
19 18 18 18 17 17 16 16 15 15 14 14 13 13 12 12 11 11 10 10 10 10 10 10 10 10 10 11 11 11 11 11 11 11 11 11 11 11 11 12 13 14 15 16 16 17 18 19 20 21 21 22 22 21 21 22 24 27 29 30 31 32 32 32 32 31 32 33 33 33 34 35 35 35
19 18 18 18 18 17 17 17 16 16 15 15 15 14 14 13 13 12 12 11 11 11 11 10 11 11 11 11 12 12 12 13 12 12 12 12 12 12 13 13 13 13 14 14 15 16 16 17 18 19 19 19 19 19 20 21 21 22 23 24 25 27 29 32 33 34 34 34 34 34 34 36 37 37
19 19 19 19 19 18 18 18 17 17 16 16 15 15 15 14 14 14 13 13 13 13 12 12 12 12 12 12 13 13 14 14 15 15 14 14 15 15 15 15 15 15 15 16 16 17 17 17 17 18 18 18 18 18 18 19 20 20 20 20 20 20 21 23 25 29 32 34 35 37 38 39 40 40
20 20 21 20 20 20 19 19 18 18 17 16 15 15 14 14 14 14 14 14 14 14 13 13 14 14 14 14 14 15 15 16 17 17 17 17 17 17 17 18 18 18 18 18 19 19 19 19 19 19 19 19 19 19 19 19 19 19 20 20 19 19 19 18 19 20 22 24 26 29 32 35 38 40
20 20 20 20 20 19 19 19 18 18 17 17 16 15 15 14 14 15 15 14 14 14 14 14 15 15 16 16 16 17 17 17 18 19 19 19 19 19 19 20 20 20 20 21 21 21 21 22 21 21 21 21 21 21 21 20 20 21 21 21 20 20 20 19 19 19 19 20 20 21 23 25 27 30
18 18 18 18 18 18 18 18 17 17 16 16 15 15 15 15 15 15 15 15 15 15 16 16 16 17 18 19 19 20 20 20 20 21 21 22 22 22 22 22 22 23 23 23 23 24 24 24 24 24 24 24 23 23 23 22 22 22 22 23 23 23 23 22 22 22 22 21 21 21 22 22 22 23
18 18 17 17 17 18 17 17 17 16 16 16 16 16 16 16 16 16 15 15 15 16 16 17 17 18 19 20 21 22 22 23 24 24 24 25 25 25 25 25 25 25 25 26 26 26 27 27 27 27 27 27 26 25 25 24 24 24 24 24 25 25 25 25 25 25 25 25 24 24 24 24 24 24
20 19 19 19 18 19 19 18 18 17 17 17 17 16 16 16 16 16 16 16 16 17 17 18 19 19 20 21 22 23 23 24 25 26 26 27 27 28 28 28 27 26 26 26 27 28 28 29 29 29 29 29 29 28 27 26 26 26 26 26 27 27 27 27 27 27 27 28 27 27 27 27 27 27
23 23 22 22 21 21 21 21 21 21 20 20 19 18 17 16 16 16 17 18 19 20 20 22 23 24 24 25 25 25 26 26 27 27 27 28 28 29 29 29 28 28 27 27 28 29 30 30 31 31 30 30 29 28 27 27 27 28 28 28 29 29 29 29 29 30 30 30 30 30 29 30 30 30
25 26 26 26 25 24 24 24 24 24 24 23 22 22 21 20 19 20 21 22 23 24 25 26 27 28 28 28 29 29 30 31 32 32 32 31 31 31 31 31 31 32 33 33 33 34 34 34 34 33 33 33 32 31 30 31 32 32 32 33 32 32 33 33 32 32 32 32 32 32 32 31 31 31
28 29 29 29 28 27 26 26 27 27 27 26 26 25 25 24 24 24 24 26 27 28 28 29 29 30 30 30 31 32 33 35 36 36 36 37 36 36 36 36 36 37 39 40 40 40 40 40 40 39 38 38 38 38 38 37 38 38 38 38 37 36 36 36 36 36 36 35 35 35 34 34 33 33
32 32 32 31 30 30 29 29 29 29 29 29 29 29 29 28 27 27 27 28 28 29 30 30 31 32 33 32 32 34 36 38 39 39 40 40 41 41 42 43 42 42 44 46 46 46 45 46 46 46 45 44 45 45 45 44 43 43 42 42 42 41 40 39 38 38 38 38 38 38 38 37 37 36
33 33 32 32 32 32 32 32 31 30 30 31 31 31 31 31 31 30 30 30 30 31 32 33 33 34 35 35 35 35 37 40 43 43 43 43 44 44 45 47 47 47 47 49 50 51 51 50 51 51 51 50 50 51 51 50 49 48 48 47 46 46 45 44 43 42 41 41 41 41 41 41 41 40
34 35 35 35 35 36 36 34 33 32 32 32 32 32 33 33 33 33 33 33 33 33 34 35 36 36 37 37 37 37 39 41 43 45 45 45 45 46 47 48 49 49 49 50 51 52 53 54 54 54 55 55 54 55 55 55 54 54 53 52 52 51 50 49 48 47 45 44 43 43 43 43 44 44
34 35 34 32 32 33 34 34 34 35 35 35 35 35 35 36 36 36 37 37 36 36 36 37 37 38 39 39 39 39 40 42 44 46 47 47 47 48 48 49 50 51 50 51 52 53 54 55 55 56 57 57 57 58 58 59 58 58 57 56 56 55 54 54 53 51 50 48 48 47 46 46 46 46
34 34 33 32 32 32 34 34 35 37 38 39 40 40 40 39 39 39 39 39 38 38 37 38 38 38 39 41 40 41 42 43 45 47 48 48 49 50 50 51 52 52 53 53 53 54 55 56 57 57 58 59 60 60 61 61 61 61 60 59 59 58 57 57 56 55 54 53 53 52 51 50 49 49
36 36 36 36 36 36 36 37 38 39 40 42 43 43 43 42 41 40 40 40 39 39 39 40 40 40 41 42 43 43 44 45 46 48 49 50 51 52 52 53 54 54 55 55 55 55 56 57 58 58 58 59 61 62 62 63 63 64 64 63 63 62 62 61 61 60 60 59 58 57 56 55 54 53
36 36 36 35 34 34 34 35 36 36 37 39 40 40 41 42 42 42 43 43 43 43 43 43 43 43 43 44 45 45 46 46 47 49 50 51 52 53 53 54 55 56 57 57 57 56 57 58 59 59 59 59 59 61 62 62 63 65 66 67 66 66 66 65 64 63 63 63 62 61 60 59 58 57
33 33 33 33 33 33 33 33 34 34 35 36 37 39 40 41 42 42 43 43 44 44 44 44 45 45 45 45 46 46 47 48 49 50 51 52 53 53 54 55 55 56 57 57 57 56 56 57 59 59 60 59 59 60 62 62 62 64 66 67 67 68 68 69 68 67 66 66 66 65 65 64 63 62
33 32 32 32 33 34 35 36 36 37 37 38 38 39 40 40 40 40 40 40 41 42 43 43 44 45 46 47 48 48 49 49 50 51 52 53 53 54 54 54 54 55 56 56 57 57 57 58 59 60 61 62 62 63 64 65 64 65 66 67 67 67 68 69 69 70 70 70 70 70 70 69 67 66
35 36 36 36 36 36 37 38 39 39 40 40 40 40 41 41 41 41 41 42 42 43 44 45 46 47 48 49 49 49 50 50 51 51 52 53 53 54 54 54 54 54 55 56 57 57 58 59 61 62 63 64 65 65 66 66 66 66 66 67 68 68 68 68 68 68 69 69 70 71 70 70 69 68
40 40 40 39 39 39 40 40 40 41 41 42 42 42 43 43 43 43 44 45 45 46 47 48 49 49 50 50 50 50 50 50 51 51 52 53 53 54 54 54 55 55 56 57 58 58 59 60 61 62 63 63 63 63 63 63 62 62 62 63 64 66 67 68 68 68 68 68 68 68 69 69 69 69
43 43 42 41 40 40 41 41 41 42 42 42 43 43 43 42 42 43 45 46 47 48 49 50 50 51 51 50 50 51 50 50 51 51 52 53 53 54 54 55 55 56 57 58 58 58 59 60 60 61 61 60 59 58 58 57 57 56 56 56 57 58 61 63 65 67 68 68 67 67 67 68 68 69
42 41 41 41 41 42 42 43 43 43 43 44 44 44 44 44 44 45 47 48 48 49 50 50 51 51 51 51 50 51 51 51 51 51 52 53 53 54 55 55 56 56 57 57 58 59 59 60 59 58 57 57 56 55 55 55 54 54 54 54 53 54 54 56 58 60 63 64 65 66 66 66 67 67
40 41 42 43 43 44 44 45 45 45 45 45 45 46 46 47 47 49 49 49 49 50 50 50 51 51 51 51 51 51 51 51 51 51 52 53 53 54 54 55 55 55 56 57 58 58 58 58 57 56 55 55 55 55 55 55 55 56 56 55 55 54 54 54 54 55 57 58 60 61 62 63 64 65
43 44 45 45 45 45 46 46 46 45 46 46 46 47 48 48 49 51 52 50 50 50 50 50 50 51 51 51 51 51 52 52 52 52 52 52 53 53 53 54 54 55 55 56 56 56 56 56 55 55 55 55 55 55 56 57 57 57 58 57 57 56 56 55 55 55 55 55 55 56 57 58 60 62
46 47 47 47 47 47 47 46 46 46 47 46 47 48 48 50 52 53 53 51 51 51 51 51 51 51 51 51 51 51 51 51 51 51 51 51 51 52 52 53 54 54 55 55 55 55 55 55 56 56 56 57 57 57 57 58 58 58 59 58 58 58 57 57 56 56 56 56 55 55 54 55 56 57
48 48 48 48 48 48 47 48 48 47 46 46 48 49 51 53 54 54 53 52 51 51 51 51 51 51 51 50 50 50 50 49 49 49 49 49 50 50 51 52 53 53 54 54 55 56 56 56 57 57 57 57 57 58 58 58 57 58 58 58 58 58 57 57 56 56 56 56 56 56 55 54 54 54
50 49 49 48 49 49 48 48 46 45 47 49 51 53 54 54 54 54 53 52 52 51 51 51 50 50 49 49 48 47 47 47 47 47 48 48 49 50 51 51 51 53 54 55 55 55 55 56 56 55 55 55 55 55 55 54 54 54 54 55 54 54 55 55 55 55 55 55 56 56 56 55 55 55
51 50 49 49 49 49 47 46 46 48 51 53 53 53 54 54 54 53 53 52 51 50 50 49 47 46 45 44 44 44 44 45 46 46 46 47 48 49 50 51 51 53 54 54 54 54 54 54 53 52 50 49 48 47 47 46 46 46 46 47 47 47 48 49 50 52 52 53 54 54 55 55 56 56
50 49 48 48 49 48 47 48 51 53 54 54 54 54 54 54 53 53 52 50 49 47 45 44 42 41 40 41 41 41 42 43 44 45 46 47 48 49 50 50 51 52 53 54 53 52 50 48 46 44 42 41 40 39 39 39 39 39 39 39 39 40 40 41 43 44 46 47 49 50 52 53 53 54
47 47 48 48 48 48 49 51 53 54 54 54 55 54 53 52 52 51 49 46 44 41 39 38 37 37 37 38 39 40 41 42 43 44 45 46 47 48 49 50 51 52 52 50 47 44 40 38 37 36 35 35 35 35 35 35 35 35 35 35 35 35 36 36 36 37 38 39 41 43 45 48 49 51
47 47 48 48 49 50 51 52 53 54 55 54 53 51 51 50 49 46 43 40 38 36 34 34 34 35 36 37 38 38 39 40 42 43 45 46 47 48 49 50 49 47 44 40 37 34 33 32 32 32 33 33 33 34 34 34 34 34 34 33 33 34 34 34 33 33 33 34 34 35 37 39 41 44
48 49 49 50 51 51 51 51 53 54 53 50 49 48 47 45 43 40 38 35 33 32 32 33 34 34 34 35 35 36 37 39 41 43 44 46 47 48 47 45 41 36 33 31 30 30 29 30 30 31 31 32 32 33 34 34 33 33 33 31 31 33 34 34 32 31 31 30 29 29 30 31 33 34
49 50 51 51 50 49 49 52 53 51 47 46 45 44 42 39 37 35 33 31 30 31 32 32 32 31 30 31 33 35 38 40 41 43 45 45 45 42 38 34 31 29 28 27 27 27 28 29 30 30 30 31 32 34 35 35 34 33 32 29 28 30 32 33 33 32 31 30 29 28 28 28 28 29
50 50 50 49 47 47 50 51 49 45 44 43 42 39 36 34 32 31 30 30 30 30 29 27 26 26 27 30 33 36 39 40 42 44 43 41 37 32 28 26 25 25 24 24 25 26 27 28 29 29 30 32 33 35 36 35 34 32 30 28 28 29 30 31 32 32 31 31 30 29 29 28 28 28
50 49 48 46 47 49 50 47 44 43 42 40 37 34 33 31 30 29 29 29 28 26 23 21 22 25 28 31 34 37 39 41 42 41 36 31 27 24 22 22 21 22 23 24 25 26 26 27 29 30 31 32 32 33 33 34 33 31 29 28 28 29 29 29 29 29 29 29 29 29 29 28 28 28
48 47 46 48 50 50 46 43 41 40 38 35 33 32 30 29 29 29 28 26 22 19 18 19 22 25 29 32 35 38 40 40 37 32 26 22 20 19 18 18 19 21 23 24 24 24 25 26 28 29 30 30 30 30 30 30 30 29 27 27 27 27 26 25 25 25 25 25 26 26 26 25 25 25
46 48 50 52 50 46 42 40 39 37 34 32 31 29 28 28 28 26 23 19 16 16 17 20 23 26 29 33 36 38 38 34 28 22 19 17 16 16 16 18 20 21 22 23 23 23 24 25 26 28 29 30 29 28 27 27 26 25 24 24 24 22 21 20 21 22 22 22 22 22 21 20 21 21
52 54 54 52 47 42 39 39 37 34 32 30 29 28 27 27 25 21 17 15 14 15 17 20 22 25 29 33 36 36 32 24 19 16 15 15 16 16 17 18 19 20 20 21 21 21 22 23 25 27 28 29 28 27 25 24 24 23 22 21 20 19 17 17 18 19 19 19 18 17 16 16 17 18
56 54 51 47 43 39 38 37 34 32 30 28 27 26 25 23 20 16 14 13 13 15 17 19 21 24 27 31 33 30 24 17 14 14 15 15 16 17 17 18 18 18 18 18 18 19 20 22 24 26 27 28 27 26 24 23 22 21 19 19 18 16 15 15 15 15 15 14 14 13 13 13 14 15
52 49 47 43 39 36 36 34 32 30 29 27 26 24 22 19 16 15 13 13 13 14 16 18 20 22 24 28 28 23 18 14 14 14 15 15 15 16 17 17 16 15 15 15 16 17 19 20 22 25 26 27 26 25 22 21 20 19 18 16 15 14 13 12 12 11 11 10 9 9 9 10 11 11
46 44 41 38 35 34 33 31 30 28 27 26 24 21 18 17 16 14 13 13 13 14 15 16 18 20 22 25 25 21 15 12 13 14 14 14 13 14 16 16 14 12 12 13 14 16 18 19 21 23 25 26 27 25 22 19 18 18 17 15 14 13 11 10 9 9 7 7 6 6 7 7 8 8
43 41 37 34 33 33 31 29 28 27 26 23 21 19 18 17 16 14 13 13 12 13 13 15 17 19 20 21 24 22 17 12 12 12 12 12 12 14 15 15 13 11 11 12 14 15 17 18 20 21 23 25 27 26 23 19 17 17 16 15 14 12 10 8 8 7 7 7 7 7 6 6 6 6
Wind_Direction
274 274 275 276 276 278 279 280 278 276 273 270 267 265 263 261 260 261 264 267 273 279 283 287 290 294 297 300 303 305 305 304 302 300 297 294 290 285 281 277 273 271 270 268 268 268 269 269 271 271 270 270 271 268 262 259 258 259 260 261 262 265 265 264 262 259 257 256 257 256 253 250 248 249
271 271 272 273 274 275 276 276 276 275 273 271 269 266 264 263 263 263 265 268 271 276 281 285 289 291 294 297 300 303 304 305 305 304 302 300 298 294 289 285 280 276 273 271 269 267 267 267 268 270 271 271 272 271 267 262 260 258 258 258 259 260 261 260 260 260 259 258 258 259 257 254 251 251
273 273 273 274 275 276 276 276 276 276 275 274 273 272 271 270 269 268 269 270 271 274 277 280 284 287 289 291 293 295 297 298 299 299 298 298 297 295 294 292 288 283 279 275 272 269 267 266 266 266 268 269 270 270 269 268 268 267 266 265 263 261 258 256 255 255 256 256 257 258 259 259 258 256
275 275 275 276 276 276 276 276 275 274 274 274 275 276 277 276 275 274 274 273 272 273 275 277 279 280 282 283 285 286 288 290 291 291 291 291 291 290 290 290 289 288 286 282 279 276 273 271 269 269 269 269 269 269 269 268 270 273 274 274 274 272 268 262 256 253 252 253 253 254 255 256 257 258
276 276 277 277 278 277 277 276 274 273 271 269 269 270 272 274 276 277 277 277 276 276 276 277 276 277 278 278 278 279 280 282 284 285 286 286 285 285 285 285 285 284 284 283 282 280 279 277 276 274 272 272 271 271 271 270 271 272 273 274 274 275 275 273 269 263 259 256 255 254 255 255 256 256
275 276 277 278 279 280 280 279 277 275 273 271 269 268 267 267 269 272 274 274 276 277 277 277 278 279 280 281 281 281 280 280 281 282 284 284 283 283 283 283 283 283 282 281 280 280 279 278 277 276 275 274 273 273 273 273 273 273 274 274 274 273 273 272 272 271 269 268 266 265 263 262 260 258
274 275 276 278 280 280 279 277 277 276 276 275 273 271 268 266 266 267 268 269 272 274 276 277 279 280 281 282 284 284 284 284 284 283 283 284 284 284 283 282 282 282 282 281 281 281 280 279 277 276 275 274 273 273 273 273 273 273 274 274 274 274 273 272 271 270 270 270 271 271 272 271 270 268
267 270 272 274 275 275 274 273 272 272 273 273 273 271 269 268 268 269 270 272 274 276 277 279 280 282 283 283 283 283 283 283 283 282 281 281 281 282 282 282 281 281 281 281 281 281 280 280 279 278 276 275 273 272 272 272 272 273 273 273 273 273 272 272 272 271 270 270 270 270 271 272 273 273
259 259 261 263 265 266 266 266 266 267 270 272 273 272 270 268 268 270 273 275 277 278 279 281 283 285 286 286 286 285 283 282 281 280 279 279 278 278 277 278 278 278 279 280 282 282 280 279 278 277 276 275 274 273 273 273 273 274 274 274 274 273 272 272 271 271 270 270 269 269 269 270 270 271
257 255 254 254 255 257 258 259 260 262 265 269 272 272 270 268 268 269 271 273 276 278 280 281 283 285 286 286 286 286 285 284 282 281 280 278 277 276 275 274 274 274 275 278 280 281 280 279 277 274 273 272 272 272 273 275 276 277 278 277 277 276 275 274 273 272 270 269 268 268 268 268 268 268
256 255 254 253 252 253 255 257 259 260 261 264 266 267 267 268 268 270 272 274 276 277 278 280 281 282 283 283 284 284 283 283 283 282 281 280 278 276 274 273 272 272 274 275 277 278 278 277 275 273 271 270 268 267 268 271 274 276 277 277 277 277 276 276 275 273 272 271 270 269 267 266 267 267
255 255 255 255 255 256 257 258 259 260 262 263 263 264 264 265 266 268 271 273 274 276 277 278 279 279 279 279 280 280 280 280 280 280 280 280 279 278 276 274 273 273 274 275 275 275 275 275 274 273 270 268 267 265 265 266 267 269 270 272 273 273 273 273 273 273 272 272 271 271 270 268 267 265
255 255 256 257 259 262 265 265 263 261 261 261 262 263 263 264 265 268 271 272 273 275 276 278 279 279 279 278 278 278 278 279 279 279 279 279 278 278 277 277 276 275 275 276 276 275 274 274 274 273 272 269 268 267 266 265 264 264 265 266 268 269 269 269 269 270 270 270 270 270 270 270 269 267
255 256 257 259 262 265 268 269 265 262 261 260 260 261 262 264 267 270 273 274 275 276 277 279 279 279 279 279 278 277 277 278 279 280 280 280 279 279 278 278 278 277 276 276 276 276 275 274 273 273 272 271 270 269 268 267 266 264 263 263 263 264 265 266 266 266 267 267 268 268 269 269 269 268
259 260 261 264 265 266 267 266 263 261 261 262 262 263 264 266 269 272 275 277 278 278 279 279 279 280 279 279 279 279 278 277 278 279 280 280 280 280 280 279 279 279 278 277 276 276 276 275 274 273 273 272 271 270 270 269 268 266 265 264 263 263 263 264 264 265 265 265 265 265 266 266 267 267
258 262 266 269 269 269 268 267 264 263 265 266 267 269 270 271 273 276 278 279 280 280 280 280 279 279 279 279 278 278 278 278 278 279 279 280 280 280 280 280 279 280 279 278 278 277 277 276 275 274 274 273 272 271 270 270 269 268 266 265 265 264 263 263 263 263 264 264 265 265 264 264 264 264
261 265 269 273 273 272 272 271 270 269 270 271 273 274 276 277 278 279 280 281 281 281 280 280 279 278 278 278 277 277 277 277 278 278 278 279 279 279 279 280 280 280 280 279 278 277 277 277 276 275 274 274 273 272 271 270 270 269 268 266 265 265 264 263 263 263 263 264 265 266 266 265 264 263
267 270 272 274 274 273 272 271 270 270 270 271 272 273 275 277 278 278 279 279 278 278 278 278 278 278 278 278 278 278 278 277 277 278 278 278 279 279 279 279 279 279 279 279 279 278 278 277 277 276 275 275 274 273 272 271 270 269 269 267 267 266 265 265 265 265 265 265 265 266 266 266 266 265
268 271 274 275 275 273 271 269 269 269 270 271 272 274 275 275 276 276 276 276 277 278 279 280 280 281 281 280 280 280 280 279 278 278 279 279 279 279 279 279 279 278 278 278 278 278 278 278 278 278 277 276 275 274 274 272 271 271 269 268 267 267 266 266 266 266 266 266 266 266 266 267 267 267
270 271 271 272 272 271 269 268 268 270 272 274 275 276 276 276 276 276 277 278 279 280 281 282 283 284 284 284 283 283 282 282 281 280 280 280 280 280 279 279 279 278 278 278 278 278 278 278 278 278 278 278 277 277 276 275 274 273 272 271 269 268 267 267 266 266 266 266 266 266 266 267 267 267
273 272 270 268 266 265 265 266 268 270 272 274 274 274 274 274 275 276 278 279 281 282 283 285 286 287 287 287 286 285 285 284 283 283 282 281 281 281 280 279 278 278 277 277 278 278 277 277 277 278 278 279 279 279 279 278 277 275 274 273 272 271 269 268 267 266 266 265 265 266 266 267 267 266
274 274 272 270 268 267 267 268 269 271 272 273 273 273 273 273 275 277 279 281 282 283 285 287 289 290 290 289 288 287 286 285 285 284 283 282 282 281 280 279 278 278 277 277 278 278 278 279 279 279 279 279 280 280 280 280 279 278 276 274 273 272 271 270 269 267 266 266 265 265 265 265 265 265
275 275 274 273 272 272 272 273 273 273 273 273 273 273 274 276 277 280 282 283 284 285 287 290 291 292 292 291 290 288 287 286 285 284 283 282 281 281 280 279 279 278 278 279 279 280 281 281 282 282 281 281 281 280 280 280 280 280 279 277 275 273 272 271 270 268 267 266 265 265 264 264 264 263
274 275 274 273 273 273 274 274 274 274 274 274 275 276 277 278 281 284 287 287 287 287 289 290 291 292 292 291 290 289 287 285 284 283 283 282 281 281 280 279 279 279 280 281 282 283 283 283 283 283 283 282 281 281 280 280 281 280 280 280 278 276 274 272 271 270 268 267 266 265 264 264 263 263
272 273 273 273 273 274 274 274 275 275 276 277 278 279 280 281 284 289 293 292 291 291 291 292 292 293 292 291 290 288 286 285 283 282 281 280 279 279 278 278 279 280 282 283 284 284 284 284 283 283 282 282 281 280 280 280 280 280 279 279 278 277 276 274 273 272 270 268 267 266 265 264 264 263
270 271 271 272 273 274 275 275 275 276 277 279 280 282 283 284 286 292 295 295 294 294 293 293 293 292 291 290 288 287 285 284 283 281 280 279 278 277 278 279 280 282 283 284 284 284 284 283 283 282 281 281 281 280 280 279 279 278 278 277 276 276 275 275 274 273 272 270 269 267 266 265 264 264
269 270 271 272 273 274 274 275 276 277 279 281 282 283 285 286 289 294 296 296 295 295 294 293 292 290 289 287 286 285 283 282 281 280 279 278 278 278 279 281 283 284 285 285 284 284 284 283 283 283 282 282 281 281 280 280 279 278 278 277 276 275 274 272 272 272 272 271 270 268 267 265 264 263
269 270 272 273 274 274 274 275 276 279 281 283 284 285 287 288 292 295 296 296 295 294 292 291 289 287 286 285 283 282 281 281 280 280 279 279 279 280 282 283 285 286 286 286 285 285 285 285 285 285 284 284 283 282 281 280 279 278 277 276 275 274 273 272 270 269 269 269 269 269 268 266 264 263
269 270 271 272 274 274 274 275 278 281 283 285 286 287 288 290 293 295 295 294 293 291 290 288 287 285 284 283 281 281 280 280 280 280 280 281 282 283 285 286 286 286 286 286 286 286 287 287 287 287 287 286 285 283 282 280 279 278 277 276 275 274 273 272 270 269 268 267 267 267 266 266 265 264
268 270 271 272 272 272 273 275 278 281 284 286 286 287 289 291 292 293 293 291 290 288 287 286 285 283 282 281 281 281 281 281 281 281 282 283 284 285 286 286 287 287 287 287 288 289 289 289 289 289 288 287 286 285 283 282 281 280 279 277 276 275 274 273 271 269 268 266 266 265 265 264 264 263
268 270 271 270 268 268 271 274 277 282 286 288 288 290 291 292 292 291 289 288 287 286 285 284 283 281 281 280 280 280 280 281 281 282 283 284 285 286 286 287 288 289 290 290 291 291 291 291 291 290 289 288 287 286 285 284 283 282 281 280 279 277 275 274 272 270 268 266 265 265 264 263 262 262
268 268 267 265 264 266 270 275 280 285 289 290 291 292 291 291 290 288 287 286 286 285 283 282 281 280 279 279 279 280 280 281 282 284 285 285 286 286 288 290 291 292 292 292 293 293 293 293 292 291 290 289 288 287 286 286 285 284 283 283 282 281 278 277 275 273 271 269 267 265 264 263 263 262
265 264 263 263 264 268 275 280 284 287 289 290 290 290 289 288 286 285 285 285 284 282 281 280 280 280 280 281 281 281 282 283 284 285 285 286 288 290 292 293 293 293 293 293 293 293 293 292 292 292 292 292 292 291 290 289 288 287 286 285 283 282 280 279 278 276 275 272 269 267 266 264 263 262
262 262 263 265 269 275 280 282 285 287 289 289 289 287 286 285 285 285 285 283 281 280 281 282 282 282 283 283 283 284 284 285 286 287 288 291 293 294 294 293 293 293 293 293 293 293 294 294 295 296 295 295 295 294 292 291 290 289 287 285 283 281 280 279 278 277 276 275 273 270 268 267 265 263
260 260 264 270 275 278 280 283 286 289 289 288 286 285 284 284 284 284 282 281 281 282 283 284 284 284 284 284 285 285 285 286 288 290 292 294 295 294 293 293 294 294 294 293 294 296 298 298 297 297 297 297 298 298 297 295 294 292 289 287 285 281 278 277 276 275 275 275 274 272 270 269 268 267
257 259 266 272 275 276 281 285 288 288 288 286 285 285 284 284 282 281 280 281 283 284 285 286 286 285 285 285 286 287 289 290 292 294 295 296 295 294 294 294 293 293 293 295 298 299 300 299 299 300 303 304 305 304 303 301 299 297 295 294 290 283 278 275 273 271 271 271 271 271 270 270 270 269
254 261 267 270 272 278 284 287 286 285 286 286 285 284 283 281 280 280 281 283 284 286 286 285 284 284 286 288 290 292 294 295 297 297 297 296 295 293 292 291 292 295 297 299 301 302 303 304 306 308 310 309 307 305 304 302 301 299 298 297 293 286 281 277 273 270 269 269 270 270 270 270 269 268
254 261 265 268 274 282 285 283 281 283 285 285 284 282 280 279 279 280 282 284 285 285 283 281 283 287 291 294 296 297 298 299 300 299 297 295 293 291 291 294 298 301 302 303 305 307 310 311 312 313 312 310 308 305 303 302 301 300 299 297 293 289 285 280 276 273 271 270 271 271 271 271 269 267
256 261 265 271 278 282 279 276 279 283 283 282 280 278 277 278 279 281 283 284 282 279 278 283 289 294 298 300 301 302 303 303 301 299 296 294 292 293 297 302 304 305 306 309 312 314 316 316 316 315 315 313 310 308 305 303 302 300 298 296 295 292 287 282 278 276 274 273 273 274 273 272 270 267
259 264 270 275 277 275 272 274 279 281 280 278 275 274 275 278 280 282 282 278 273 273 281 290 296 300 304 306 307 307 306 304 300 297 296 296 297 301 306 308 309 311 313 316 318 319 320 320 319 319 318 316 314 311 309 306 303 300 298 297 296 295 290 284 279 278 278 277 276 275 273 271 269 267
264 267 270 271 270 268 269 273 276 277 276 274 272 273 277 279 280 278 272 265 267 277 288 295 301 306 311 314 314 312 309 304 299 299 301 303 306 310 313 314 316 319 320 320 321 323 324 325 325 326 324 321 318 316 314 311 306 301 298 296 297 296 292 286 282 280 278 276 274 271 269 268 268 268
263 264 265 264 264 264 267 271 273 273 272 270 271 275 278 277 273 265 256 258 270 282 291 300 306 312 319 323 321 315 308 301 299 302 307 310 312 315 318 321 323 324 323 323 325 327 329 330 332 332 330 328 325 322 319 315 311 307 301 296 296 296 293 289 285 281 275 271 268 266 265 265 266 268
258 258 259 259 260 262 265 268 269 269 268 269 272 275 274 268 258 249 249 258 273 283 294 305 312 317 327 334 332 323 310 301 301 305 309 313 315 319 324 327 328 328 328 330 332 332 332 333 334 334 334 335 333 330 325 318 314 313 309 303 297 295 293 293 290 282 272 264 258 254 255 260 264 267
252 253 255 256 258 261 263 264 265 265 266 269 271 269 261 251 243 242 247 258 272 285 298 310 317 321 331 343 347 342 327 308 302 306 312 315 317 324 330 330 329 331 334 336 335 333 332 333 333 334 336 338 338 336 332 324 317 316 317 313 303 293 289 292 293 283 262 242 233 234 241 251 258 264
249 251 253 256 259 260 260 260 260 262 264 266 263 254 245 239 236 238 246 257 272 287 301 314 321 325 332 346 356 0 358 344 322 313 314 314 317 326 331 328 323 323 329 332 331 330 330 333 336 338 339 340 340 340 337 331 322 318 320 321 312 295 279 273 274 262 235 216 220 228 234 247 261 267